User: anonymous   Login
Location: Boca do Mato
(22.9085°S, 43.2930°W)
Time: 08:30:10
(UTC+00:00)
Language:

Cosmos 2263 Rocket - Orbit

View from above orbital plane
View from above orbital plane
View from above satellite
View from above satellite

Ground track
Ground track

The orbit data is extracted from the following two-line orbital elements,

1 22803U 93059B   20272.90395380 -.00000111 +00000-0 -31416-4 0  9995
2 22803 070.9887 241.2511 0017522 350.6364 009.4430 14.16826503397955
Epoch (UTC): 28 September 2020 21:41:41
Eccentricity: 0.0017522
inclination: 70.9887°
perigee height: 823 km
apogee height: 849 km
right ascension of ascending node: 241.2511°
argument of perigee: 350.6364°
revolutions per day: 14.16826503
mean anomaly at epoch: 9.4430°
orbit number at epoch: 39795

The dashed part of the orbit path shows where the satellite is in the earth's shadow,  

DLR